Flag for U.S.A. Weather past 2 weeks in Montpelier, Vermont, U.S.A.

Now
32 °F

Overcast.


Feels Like: 24 °F
Forecast: 23 / 39 °F
Wind: 9 mph from West

Location: Knapp State Airport

Current Time: Mar 4, 2015 at 4:27:04 AM

Latest Report: Mar 4, 2015 at 3:51 AM


Visibility: 10 mi

Pressure: 29.64 "Hg

Humidity: 75%

Dew point: 25 °F

Location of MontpelierLocation

Historic Weather in Montpelier — Graph

°F

Montpelier temperature yesterday

Maximum temperature yesterday: 24 °F (at 2:51 PM)
Minimum temperature yesterday: 0 °F (at 6:51 AM)
Average temperature yesterday: 16 °F

Past Weeks' High & Low Weather Summary

 TemperatureHumidityPressure
High27 °F (Feb 22, 2:51 PM)92% (Feb 21, 11:59 PM)30.79 "Hg (Feb 21, 11:59 PM)
Low-22 °F (Feb 24, 6:51 AM)32% (Mar 3, 11:51 AM)29.59 "Hg (Mar 4, 2:01 AM)
Average8 °F66%30.18 "Hg
* Reported Feb 17 2:51 AM — Mar 4 2:51 AM, Montpelier, Weather by CustomWeather, © 2015

Note: Actual official high and low records may vary slightly from our data, if they occured in-between our weather recording intervals... More about our weather records

Advertising

Montpelier weather history for previous 24 hours

 ConditionsComfort  
Time TempWeatherWind HumidityBarometerVisibility
2:51 AM
Wed, Mar 4
23 °FOvercast.12 mph92%29.64 "Hg10 mi
2:01 AM22 °FMostly cloudy.8 mph92%29.59 "Hg8 mi
12:51 AM22 °FOvercast.3 mph89%29.67 "Hg7 mi
11:51 PM
Tue, Mar 3
21 °FIce fog.7 mph88%29.70 "Hg3 mi
10:51 PM20 °FLight snow. Ice fog.14 mph85%29.74 "Hg2 mi
9:59 PM20 °FLight snow. Overcast.14 mph82%29.73 "Hg3 mi
8:51 PM19 °FLight snow. Ice fog.N/A85%29.83 "Hg1 mi
8:00 PM20 °FLight snow. Overcast.15 mph82%29.82 "Hg1 mi
6:51 PM21 °FLight snow. Overcast.16 mph65%29.97 "Hg5 mi
5:51 PM23 °FOvercast.18 mph40%30.03 "Hg10 mi
4:51 PM23 °FCloudy.9 mph38%30.09 "Hg10 mi
3:51 PM23 °FOvercast.9 mph36%30.14 "Hg10 mi
2:51 PM24 °FPartly sunny.13 mph35%30.18 "Hg10 mi
1:51 PM23 °FSunny.10 mph33%30.24 "Hg10 mi
12:51 PM23 °FSunny.10 mph35%30.29 "Hg10 mi
11:51 AM20 °FSunny.5 mph32%30.34 "Hg10 mi
10:51 AM18 °FSunny.3 mph37%30.37 "Hg10 mi
9:51 AM15 °FSunny.3 mph46%30.40 "Hg10 mi
8:51 AM10 °FSunny.3 mph61%30.40 "Hg10 mi
7:51 AM7 °FSunny.No wind66%30.41 "Hg10 mi
6:51 AM0 °FSunny.No wind71%30.40 "Hg10 mi
5:51 AM4 °FClear.No wind69%30.40 "Hg10 mi
4:51 AM5 °FClear.No wind63%30.40 "Hg10 mi
Weather by CustomWeather, © 2015

See weather overviewHow to use our weather pages